This is the latest recevied weather packets stored in our database for station/object LZ1BAB-WX. If no packets are shown the sender has not sent any weather packets the latest 1 day(s).
| Time | Temp. | Humidity | Pressure | Rain* | Wind** | Luminosity | Snow |
|---|---|---|---|---|---|---|---|
| 1778067546 | 26.67° C | 30% | 1015.1 hPa | 0 mm | - | 631 W/m² | - |
| 1778067425 | 26.67° C | 30% | 1015.3 hPa | 0 mm | - | 427 W/m² | - |
| 1778067186 | 26.67° C | 28% | 1014.9 hPa | 0 mm | - | 515 W/m² | - |
| 1778067066 | 27.22° C | 30% | 1015.1 hPa | 0 mm | - | 619 W/m² | - |
| 1778066827 | 26.67° C | 30% | 1015.2 hPa | 0 mm | - | 646 W/m² | - |
| 1778065993 | 26.67° C | 32% | 1015.3 hPa | 0 mm | - | 660 W/m² | - |
| 1778065866 | 26.67° C | 34% | 1015.2 hPa | 0 mm | - | 662 W/m² | - |
| 1778065626 | 26.11° C | 35% | 1015.4 hPa | 0 mm | - | 666 W/m² | - |
| 1778065506 | 26.67° C | 34% | 1015.3 hPa | 0 mm | - | 671 W/m² | - |
| 1778064785 | 26.11° C | 35% | 1015.4 hPa | 0 mm | - | 684 W/m² | - |
| 1778063945 | 25.56° C | 31% | 1015.7 hPa | 0 mm | - | 681 W/m² | - |
| 1778063345 | 25° C | 33% | 1015.6 hPa | 0 mm | - | 700 W/m² | - |
| 1778063225 | 25° C | 32% | 1015.6 hPa | 0 mm | - | 707 W/m² | - |
| 1778062985 | 25° C | 35% | 1015.5 hPa | 0 mm | - | 687 W/m² | - |
| 1778062386 | 24.44° C | 33% | 1015.7 hPa | 0 mm | - | 685 W/m² | - |
| 1778062266 | 25° C | 33% | 1015.6 hPa | 0 mm | - | 685 W/m² | - |
| 1778062146 | 25° C | 35% | 1015.7 hPa | 0 mm | - | 688 W/m² | - |
| 1778062026 | 24.44° C | 42% | 1015.8 hPa | 0 mm | - | 686 W/m² | - |
| 1778061786 | 24.44° C | 43% | 1015.7 hPa | 0 mm | - | 688 W/m² | - |
| 1778061666 | 24.44° C | 37% | 1015.7 hPa | 0 mm | - | 688 W/m² | - |
| 1778060947 | 23.89° C | 38% | 1016 hPa | 0 mm | - | 681 W/m² | - |
| 1778060826 | 23.89° C | 39% | 1015.8 hPa | 0 mm | - | 682 W/m² | - |
| 1778060706 | 23.89° C | 39% | 1016 hPa | 0 mm | - | 680 W/m² | - |
| 1778060586 | 23.89° C | 43% | 1016 hPa | 0 mm | - | 636 W/m² | - |
| 1778060346 | 23.33° C | 42% | 1015.9 hPa | 0 mm | - | 688 W/m² | - |
* Rain latest hour (hover to see other rain measurements)
** Current wind speed in m/s (hover to see current wind gust speed)